Volver al catálogo

COSMOS 1481 DEB

LostHEO
NORAD 26633·DEBRIS·🇷🇺 Russia

Lanzado Jul 8, 1983 desde Plesetsk Cosmodrome

Loading…

Próximos Pases (próximas 24 horas)

TLE

ObsoletoSource: Space-Track

Época: Jan 18, 2002, 14:13 UTC

1 26633U 83070G   02018.59257852 +.00001148 +00000-0 +10000-3 0  9990
2 26633 066.5019 219.6367 6996189 146.8748 288.4987 02.00493453008889

Sigue COSMOS 1481 DEB en tiempo real con AllMySat

Download on the App Store